Location: Lombard
(41.8800°N, 88.0080°W)
Time: 13:14:19
(UTC-06:00)

Transit 4A - Pass Details

Date: 06 December 2023
Orbit: 870 x 973 km, 66.8° (Epoch: 03 March)

Event Time Altitude Azimuth Distance (km) Brightness Sun altitude
Rises 19:03:27 0° 197° (SSW) 3,651 11.3 -29.5°
Reaches altitude 10° 19:06:01 10° 195° (SSW) 2,709 10.5 -29.9°
Enters shadow 19:09:55 39° 179° (S) 1,429 8.8 -30.7°
Maximum altitude 19:12:17 63° 115° (ESE) 1,075 - -31.1°
Drops below altitude 10° 19:18:31 10° 36° (NE) 2,700 - -32.3°
Sets 19:21:04 0° 34° (NNE) 3,638 - -32.7°
